Live-Position
3D-Globus wird geladen...
Über OneWeb SL0616
Group: 3 satellites
Beschreibung wird geladen...
Nächste Überflüge
Passes for default location (London). Set your location on the main map for personalized predictions.
Höhenverlauf
Loading altitude history...
No altitude history available
Zweizeiliger Elementsatz
1 55157U 23004T 26127.06156424 .00000088 00000-0 19295-3 0 9993
2 55157 87.9174 14.0419 0002539 64.8018 295.3376 13.17650285162288
Epoch: 7. Mai 2026 •
Age: 9 hours
Aktueller Status
Höhe 1210.2 km
Geschwindigkeit 7.25 km/s
Subsatellitenpunkt -41.66°S,
8.85°W
Startdatum 10. Jan. 2023
Alter 3.3 years
Typ internet
Startgruppe
Unknown Vehicle •
OneWeb Launch 16 •
40 satellites
OneWeb SL0532
55140
OneWeb SL0533 55141
OneWeb SL0541 55142
OneWeb SL0543 55143
OneWeb SL0544 55144
OneWeb SL0560 55145
OneWeb SL0565 55146
OneWeb SL0567 55147
OneWeb SL0569 55148
OneWeb SL0570 55149
OneWeb SL0571 55150
OneWeb SL0572 55151
OneWeb SL0573 55152
OneWeb SL0588 55153
OneWeb SL0598 55154
OneWeb SL0599 55155
OneWeb SL0614 55156
OneWeb SL0617 55158
OneWeb SL0618 55159
OneWeb SL0619 55160
...and 19 more
Technische Details
Klassifizierung Payload
Masse 148.00 kg
Trockenmasse 140.00 kg
Gesamtmasse 148.00 kg
Länge 1.30 m
Durchmesser 1.00 m
Spannweite 5.00 m
Form Trapezoid+2 pan
Hersteller ONEWUS
Bus-Typ ARROW
Phasenstatus In Orbit
Besitzer/Staat ONEWEBN/UK
Most Searched
Loading...